Temp
47 40 38 42 47 49 49 47 46 53 60 59 59 60 64 68 66 66 66 67 69 71 74 75 69 70 71 73 72 70 68 66 69 70 70 71 72 72 74 75 78 77 77 75
42 36 46 52 52 49 48 45 46 54 60 57 58 59 63 65 70 70 65 66 67 68 72 73 68 67 68 69 69 67 68 67 71 71 70 71 72 71 72 73 74 77 76 74
39 44 52 48 48 46 48 46 46 48 56 58 56 53 56 64 67 71 69 71 69 69 71 69 72 67 68 66 66 67 67 67 68 69 68 71 71 71 71 70 71 73 74 74
42 50 47 46 44 47 40 52 52 51 49 40 55 42 52 61 64 67 71 65 69 71 71 70 72 67 69 68 67 69 68 68 68 69 69 70 70 69 69 69 71 70 73 74
40 45 46 42 46 48 42 53 50 49 47 41 47 40 50 58 59 62 67 67 66 68 68 69 69 69 73 72 71 70 72 72 71 70 71 71 72 69 70 70 70 70 69 71
42 53 48 47 51 48 52 48 51 48 42 36 45 43 43 50 60 66 68 66 68 66 67 70 68 70 70 72 71 72 72 72 72 72 72 71 73 69 69 68 68 67 67 68
43 45 51 53 44 48 44 36 33 27 32 33 47 46 47 56 64 68 67 66 67 67 66 66 67 68 69 68 67 68 70 69 69 68 69 70 69 69 68 67 68 66 66 65
32 31 45 51 46 42 40 38 33 24 29 34 49 43 49 64 66 70 74 71 68 66 66 66 68 69 68 66 67 69 69 69 67 67 68 68 67 67 67 68 67 66 65 64
32 33 49 49 52 49 43 36 48 35 37 33 40 49 56 62 61 64 66 65 65 65 64 65 69 70 67 68 69 70 68 67 67 67 66 64 64 64 64 65 66 65 66 66
40 30 46 46 49 49 45 47 36 35 27 26 38 44 43 52 55 56 60 62 63 63 63 64 68 70 70 70 69 68 67 65 65 66 65 64 62 61 61 62 59 59 58 59
41 36 37 45 42 41 41 37 38 41 39 28 33 37 52 49 53 53 52 58 58 59 62 66 67 68 68 67 66 65 64 64 63 64 63 62 61 60 59 57 57 56 56 56
39 33 29 33 49 50 47 41 40 31 33 36 35 35 50 49 55 53 56 59 61 64 66 67 65 65 64 64 64 63 62 61 62 61 59 59 60 60 59 56 55 55 54 55
40 33 26 34 38 45 41 44 44 40 40 36 31 36 53 55 57 56 59 61 62 63 63 63 63 63 62 62 62 60 60 59 61 61 58 58 60 58 56 53 53 54 55 55
45 34 31 26 34 37 36 42 46 40 33 38 38 42 49 53 55 58 59 60 61 61 61 60 61 61 61 61 60 60 61 61 61 60 58 58 56 54 53 53 52 53 53 52
39 32 34 36 39 40 39 41 45 43 41 37 42 44 48 50 55 57 58 58 58 57 58 59 59 59 59 59 60 61 61 60 60 59 56 53 53 53 52 51 51 51 51 51
34 31 35 33 39 41 40 43 45 48 45 42 44 43 51 52 54 55 56 56 55 56 58 58 59 58 58 58 58 59 58 58 58 55 53 54 53 52 50 50 49 48 47 47
32 32 33 32 40 38 35 41 45 48 48 46 38 45 49 50 52 53 54 54 54 55 56 57 57 57 56 57 57 55 56 57 55 55 54 53 51 50 49 48 47 45 44 44
32 32 34 33 37 27 41 53 53 47 48 47 46 48 49 51 51 53 55 54 54 55 55 55 56 55 54 55 55 55 55 54 53 52 51 51 50 48 47 46 44 44 44 46
38 35 33 32 33 39 45 48 48 46 42 48 46 45 46 48 48 47 54 55 54 54 55 53 54 53 53 53 54 53 52 51 51 49 49 49 49 47 46 43 42 43 44 46
41 39 35 35 32 31 40 49 55 52 37 48 47 46 45 51 37 40 51 53 53 54 54 52 52 52 51 51 52 50 48 48 47 48 48 48 48 47 44 43 46 47 45 39
34 36 33 35 34 38 48 53 56 40 38 47 48 47 45 42 43 47 51 51 52 52 51 51 49 47 48 50 49 47 47 45 47 48 47 46 44 41 40 38 38 38 37 38
31 31 33 36 33 33 51 53 44 44 46 46 45 44 43 44 46 47 48 48 49 49 50 50 48 47 47 49 49 46 45 47 48 46 44 42 40 42 39 35 35 35 35 34
32 33 31 34 36 42 47 45 48 48 45 45 44 45 45 44 44 45 45 46 47 47 48 48 47 45 46 47 48 46 48 48 46 43 41 40 40 39 37 34 32 33 33 34
34 37 35 37 40 41 43 46 47 47 46 47 47 46 46 44 45 44 46 46 47 47 47 47 46 44 45 47 49 49 49 48 45 41 39 38 35 35 34 35 33 33 33 36
33 35 35 38 41 41 41 42 44 44 45 45 45 46 46 46 46 47 46 47 47 47 47 47 45 44 44 45 46 47 46 45 42 41 39 36 34 33 32 33 32 32 35 33
35 33 33 32 40 39 39 42 45 43 43 45 45 44 45 47 47 47 47 48 48 47 47 46 45 43 43 44 44 44 44 43 41 39 37 35 34 35 34 33 35 39 39 39
MSLP
1005.40 1005.58 1005.33 1005.42 1005.43 1004.93 1004.83 1004.24 1003.29 1002.05 1001.18 1001.04 1000.21 999.82 999.42 999.01 999.04 999.20 999.23 999.50 999.31 999.33 999.72 1000.51 1001.89 1002.57 1003.43 1004.25 1004.98 1005.46 1005.92 1006.21 1006.25 1006.80 1007.55 1008.44 1008.40 1008.68 1008.83 1008.64 1008.69 1008.85 1009.62 1009.98
1005.82 1005.11 1004.90 1005.04 1004.97 1004.65 1004.50 1004.11 1003.18 1002.17 1001.20 1000.66 999.99 999.24 999.24 998.95 998.23 998.41 998.82 999.05 999.17 999.14 999.50 1000.71 1001.60 1002.68 1003.31 1003.93 1004.94 1005.60 1005.98 1005.58 1006.02 1006.37 1007.20 1007.43 1008.32 1008.48 1008.89 1009.18 1008.81 1008.84 1009.35 1010.03
1004.98 1004.47 1004.78 1004.93 1004.70 1004.27 1003.72 1003.43 1003.28 1002.46 1001.50 1000.71 1000.34 999.44 999.24 998.60 997.99 997.86 997.84 997.85 998.31 998.73 999.25 1000.66 1001.11 1002.46 1003.31 1004.15 1004.82 1005.43 1005.69 1005.60 1005.60 1005.99 1006.77 1007.40 1007.98 1008.62 1009.19 1009.84 1009.50 1009.02 1008.96 1009.89
1004.87 1004.19 1004.40 1004.20 1004.02 1004.26 1003.61 1003.54 1003.20 1002.64 1002.26 1001.57 1000.32 999.45 998.79 998.00 997.67 997.43 997.36 997.63 997.87 998.33 999.07 999.90 1000.37 1001.80 1002.63 1003.40 1004.22 1004.65 1005.62 1006.28 1006.26 1005.94 1006.07 1006.74 1007.84 1008.85 1009.01 1009.55 1009.36 1007.94 1008.83 1009.71
1003.93 1003.18 1003.19 1003.23 1003.02 1003.73 1003.47 1003.50 1003.25 1003.14 1002.41 1002.05 1001.14 1000.87 997.84 997.52 997.49 996.94 996.53 996.87 997.49 998.17 998.99 999.62 999.70 1000.54 1001.49 1002.43 1003.61 1004.27 1005.25 1005.80 1005.57 1006.05 1007.09 1007.92 1007.99 1007.68 1007.94 1008.35 1008.59 1008.63 1008.96 1010.11
1003.98 1002.99 1002.68 1002.59 1002.82 1003.32 1003.62 1003.60 1003.25 1003.27 1003.12 1002.19 1000.47 1000.68 998.25 996.95 995.84 995.35 996.08 996.32 996.95 997.92 998.76 998.92 999.29 1000.18 1001.18 1002.41 1003.17 1003.95 1004.92 1004.95 1005.39 1005.76 1006.38 1004.82 1006.57 1007.43 1007.62 1008.23 1009.10 1009.55 1010.38 1010.73
1003.49 1002.43 1001.87 1002.06 1002.27 1002.87 1003.86 1003.90 1003.66 1003.52 1002.70 1001.76 1000.29 1000.06 998.33 996.04 994.99 994.99 995.40 996.04 996.65 997.35 998.51 998.84 999.56 1000.52 1001.36 1002.44 1003.51 1003.81 1004.15 1004.67 1005.12 1005.53 1005.90 1006.29 1006.84 1007.35 1007.78 1008.33 1009.27 1010.64 1011.69 1011.34
1003.96 1002.71 1001.68 1001.43 1001.48 1001.96 1002.82 1003.27 1003.16 1002.50 1002.05 1001.23 1000.01 998.71 996.81 994.97 994.87 994.48 994.57 995.32 996.05 996.90 998.01 998.46 999.24 1000.05 1001.20 1002.29 1003.10 1003.71 1004.42 1005.16 1005.87 1006.41 1006.26 1006.73 1007.78 1007.47 1007.97 1008.97 1009.76 1011.10 1011.36 1011.51
1004.96 1003.26 1002.07 1001.56 1001.10 1001.43 1002.04 1002.38 1002.03 1002.10 1001.67 1000.97 999.58 998.03 996.47 995.62 995.04 994.86 994.84 995.08 995.78 996.57 997.54 998.37 999.08 999.84 1001.18 1002.24 1003.29 1003.74 1004.86 1005.80 1006.50 1006.95 1007.39 1007.99 1008.41 1008.74 1009.53 1009.77 1010.51 1011.45 1011.78 1012.23
1005.55 1004.33 1002.09 1001.47 1000.68 1000.98 1001.35 1001.74 1002.38 1002.70 1001.59 1000.91 999.88 998.20 997.05 996.22 996.10 995.57 995.07 995.34 995.92 996.58 997.66 998.47 999.25 1000.20 1001.33 1002.47 1003.56 1004.49 1005.55 1006.37 1007.04 1007.76 1008.47 1009.25 1009.59 1009.93 1010.32 1010.84 1011.91 1012.55 1013.02 1013.40
1005.87 1005.28 1003.15 1002.13 1000.95 1000.45 1001.48 1001.59 1002.21 1002.09 1001.32 1000.35 999.86 998.61 997.60 997.39 996.97 996.18 995.25 995.70 996.28 997.37 998.14 999.09 999.97 1000.83 1002.05 1003.02 1004.29 1005.22 1005.95 1007.14 1007.93 1008.74 1009.62 1010.00 1010.58 1011.37 1011.77 1012.45 1013.03 1013.45 1013.68 1013.70
1005.94 1005.76 1004.40 1002.64 1000.78 1000.40 1000.13 1000.72 1001.86 1001.69 1001.28 1000.56 999.81 999.42 998.67 997.99 997.16 996.84 996.00 995.97 997.00 997.47 998.81 999.86 1000.75 1001.78 1003.08 1003.98 1005.28 1006.24 1007.09 1008.13 1008.91 1009.83 1010.64 1011.30 1011.41 1012.25 1012.68 1013.54 1013.99 1014.09 1014.33 1014.54
1005.90 1005.68 1004.71 1002.58 1001.88 1000.94 1000.99 1000.99 1000.78 1000.90 1000.84 1000.73 1000.30 999.90 998.77 998.03 997.90 997.87 996.69 997.55 997.65 998.39 999.75 1001.05 1002.11 1003.00 1004.07 1005.14 1006.32 1007.42 1008.32 1009.05 1009.99 1010.60 1011.29 1012.32 1012.84 1013.22 1013.98 1014.54 1014.75 1014.94 1015.18 1015.49
1005.04 1005.40 1004.87 1003.54 1002.40 1002.46 1001.33 1000.30 999.96 1000.39 1001.06 1000.86 1001.19 1000.58 999.85 999.00 998.75 998.67 998.28 998.79 998.74 999.48 1000.79 1002.28 1003.41 1004.24 1004.96 1006.22 1007.54 1008.47 1009.23 1009.99 1010.71 1011.58 1012.15 1012.92 1013.55 1013.95 1014.86 1015.26 1015.66 1015.88 1015.93 1016.15
1005.50 1005.02 1004.38 1003.00 1002.21 1001.82 1000.99 1000.25 999.54 999.80 1000.29 1001.01 1001.45 1001.10 1000.74 1000.40 1000.16 999.73 999.34 999.96 1000.32 1001.17 1002.38 1003.38 1004.23 1005.43 1006.41 1007.24 1008.74 1009.25 1010.22 1011.10 1011.77 1012.25 1012.97 1013.96 1014.33 1014.98 1015.43 1015.89 1016.41 1016.76 1016.96 1017.18
1005.77 1004.94 1003.81 1002.11 1000.91 1000.65 1000.03 999.60 999.23 999.33 999.91 1001.06 1001.45 1001.97 1001.57 1001.33 1000.82 1000.76 1000.65 1001.08 1001.79 1002.75 1003.57 1004.64 1005.56 1006.43 1007.46 1008.77 1009.73 1010.48 1011.35 1012.29 1012.71 1013.28 1014.16 1014.80 1015.26 1015.81 1016.57 1017.04 1017.36 1017.47 1017.54 1017.59
1005.37 1004.88 1003.63 1001.55 1000.04 1000.19 999.73 998.47 998.41 998.65 999.45 1000.27 1001.67 1002.19 1002.19 1002.37 1001.83 1002.16 1001.88 1002.33 1002.90 1003.96 1005.09 1005.92 1006.96 1007.86 1009.27 1010.15 1010.79 1011.64 1012.51 1013.46 1013.97 1014.39 1015.12 1015.74 1016.44 1017.10 1017.51 1017.67 1017.82 1017.97 1018.14 1018.26
1004.47 1004.32 1003.33 1001.37 1000.05 999.40 997.50 996.88 997.49 998.56 999.88 1000.32 1001.41 1002.16 1002.99 1003.18 1003.01 1003.71 1004.03 1003.11 1004.57 1005.45 1006.39 1007.54 1008.52 1009.48 1010.53 1011.50 1012.06 1012.79 1013.80 1014.51 1015.16 1015.53 1016.19 1016.95 1017.40 1017.83 1018.09 1018.31 1018.58 1018.77 1018.81 1018.92
1003.75 1003.77 1002.62 1000.55 999.65 999.08 998.00 997.74 997.95 998.94 1001.09 1001.48 1002.40 1003.75 1004.30 1004.37 1003.78 1005.86 1005.93 1005.86 1006.40 1006.91 1007.98 1009.19 1010.13 1011.03 1011.89 1012.66 1013.38 1014.09 1014.89 1015.67 1016.18 1016.80 1017.30 1017.71 1018.05 1018.48 1018.90 1019.14 1019.45 1019.56 1019.52 1019.57
1003.71 1003.61 1002.97 1001.10 1000.10 999.60 999.43 998.18 998.33 998.81 1002.36 1003.01 1003.10 1004.45 1004.25 1001.87 1005.52 1008.04 1007.65 1007.58 1008.52 1008.68 1009.72 1010.64 1011.81 1012.61 1013.25 1014.27 1014.58 1015.15 1016.11 1016.59 1017.27 1017.64 1017.97 1018.36 1018.66 1019.12 1019.76 1020.05 1020.12 1020.22 1020.53 1020.47
1004.41 1003.88 1003.15 1001.93 1001.16 1000.66 999.98 999.01 998.47 999.36 1002.59 1003.48 1004.61 1005.25 1005.35 1005.25 1007.01 1008.73 1009.02 1009.35 1010.00 1010.23 1011.18 1012.14 1013.15 1014.11 1014.99 1015.36 1015.70 1016.36 1016.94 1017.55 1018.03 1018.31 1018.77 1019.37 1019.94 1020.45 1020.88 1021.07 1021.22 1021.39 1021.44 1021.00
1006.51 1005.58 1004.53 1003.31 1002.59 1002.26 1001.00 1000.52 1000.99 1002.11 1003.32 1004.44 1005.88 1006.71 1005.97 1006.60 1008.81 1009.67 1010.37 1010.78 1011.32 1012.01 1012.80 1013.69 1014.38 1015.46 1016.21 1016.32 1016.53 1017.02 1017.74 1018.42 1018.66 1019.24 1020.00 1020.68 1021.09 1021.38 1021.81 1022.03 1022.24 1022.24 1021.87 1021.72
1007.87 1008.03 1006.84 1005.54 1004.98 1004.25 1002.68 1002.14 1002.31 1003.31 1004.16 1005.98 1007.00 1007.98 1007.60 1008.86 1009.92 1010.81 1011.36 1012.24 1012.92 1013.59 1014.34 1015.30 1015.65 1016.44 1017.29 1017.33 1017.47 1017.67 1018.49 1019.01 1019.68 1020.46 1021.17 1021.63 1021.99 1022.38 1022.63 1022.87 1023.02 1022.76 1022.57 1022.38
1009.03 1008.57 1007.73 1006.45 1006.43 1005.87 1005.18 1004.99 1005.34 1005.82 1006.63 1007.47 1008.10 1009.35 1009.43 1009.95 1011.16 1011.92 1012.67 1013.44 1014.03 1014.85 1015.56 1016.31 1016.75 1017.34 1018.02 1018.17 1018.20 1018.48 1018.96 1019.70 1020.52 1021.29 1022.02 1022.61 1022.88 1023.21 1023.40 1023.53 1023.45 1023.27 1023.16 1023.01
1010.69 1009.87 1009.01 1008.50 1008.04 1007.87 1008.06 1007.68 1007.60 1008.35 1008.84 1009.55 1010.27 1010.58 1011.16 1011.24 1012.09 1012.69 1013.74 1014.56 1015.30 1015.85 1016.63 1017.08 1017.63 1018.35 1018.81 1018.84 1018.99 1019.40 1019.86 1020.40 1021.20 1021.97 1022.79 1023.34 1023.77 1024.07 1024.24 1024.07 1023.86 1023.74 1023.57 1023.31
1011.93 1011.01 1010.35 1010.45 1009.54 1009.06 1009.98 1010.00 1009.59 1009.74 1010.74 1011.13 1010.93 1012.11 1012.63 1012.73 1013.24 1013.89 1014.72 1015.56 1016.28 1016.94 1017.63 1018.13 1018.66 1018.95 1019.45 1019.73 1019.96 1020.39 1020.80 1021.28 1022.00 1022.73 1023.32 1023.83 1024.19 1024.33 1024.36 1024.33 1024.16 1023.81 1023.50 1023.36
Wind_Speed
3 4 11 10 12 15 14 14 10 8 7 13 19 21 13 13 6 9 9 9 9 9 8 9 18 18 17 16 16 16 14 9 7 4 3 4 6 3 2 5 10 11 8 6
1 10 11 11 15 18 17 17 16 14 10 9 16 22 13 10 16 12 10 10 10 6 8 8 17 17 18 20 16 13 11 13 13 11 5 5 3 3 3 0 6 8 8 7
11 8 9 8 14 14 16 17 13 14 12 11 8 14 8 12 10 13 10 11 9 12 11 10 11 20 19 19 18 17 14 12 7 4 5 0 4 3 4 3 3 5 8 5
12 17 15 13 14 18 15 13 16 12 13 7 6 11 10 18 15 13 17 11 12 12 7 8 10 15 19 18 16 16 12 9 6 8 10 10 11 7 5 5 3 4 7 5
7 10 13 11 17 10 13 15 12 14 13 3 14 3 9 10 16 16 17 13 12 11 11 11 10 13 18 20 20 18 18 18 18 14 11 13 13 6 7 5 7 7 7 6
10 5 6 8 7 4 10 8 14 10 3 8 16 7 6 6 22 25 12 12 13 10 9 10 9 14 16 14 16 19 19 15 13 15 16 14 15 6 5 4 4 6 3 4
4 14 10 7 6 3 6 1 5 6 7 7 8 8 10 11 10 14 17 12 10 10 10 10 14 13 17 16 13 12 12 9 6 3 5 7 7 3 5 8 10 3 4 4
3 5 2 10 8 8 11 9 4 6 7 9 9 10 10 20 10 12 19 17 13 12 10 13 16 17 17 14 13 13 11 9 7 5 8 9 7 5 5 7 9 6 6 6
4 4 3 9 12 11 5 9 10 3 3 3 3 5 4 7 4 8 11 11 11 10 11 13 15 17 16 15 13 16 15 14 13 13 12 11 10 11 11 13 12 8 8 8
3 7 5 8 3 12 5 4 7 4 4 5 6 13 7 5 5 8 8 10 9 9 11 12 16 19 17 15 14 16 17 17 16 16 14 12 13 14 14 14 13 11 8 8
3 3 3 2 5 11 4 4 2 5 4 5 8 6 4 3 5 7 4 9 10 14 17 19 17 18 18 17 17 17 17 18 16 15 13 14 14 13 13 11 9 8 8 7
3 2 6 9 5 3 2 6 8 6 6 1 3 4 6 9 3 3 11 18 19 24 22 21 20 20 18 18 17 17 16 16 16 14 14 13 15 12 13 10 8 7 8 7
3 2 5 1 2 2 2 8 6 4 1 4 3 3 7 6 9 3 22 18 22 25 24 19 19 19 19 19 17 17 16 16 15 15 14 13 13 13 12 10 10 11 12 11
11 4 8 5 2 1 6 5 10 6 4 3 2 3 6 6 11 14 19 18 22 23 23 20 19 19 20 20 17 16 16 15 15 14 14 14 13 14 12 11 11 11 10 11
1 5 8 14 14 12 14 11 5 11 9 5 4 3 3 3 9 15 18 19 21 24 23 22 22 19 19 20 16 17 16 15 14 15 15 14 13 13 12 12 10 10 10 7
1 4 3 10 16 13 10 12 5 8 12 7 4 1 1 5 4 14 20 23 23 24 23 22 23 23 20 18 17 16 15 13 14 16 15 13 14 13 11 9 8 9 7 7
4 2 3 4 11 10 6 11 12 6 13 11 6 4 4 6 11 14 21 23 25 25 23 23 21 20 17 16 16 15 14 13 14 15 14 14 13 11 9 8 9 8 7 7
3 2 2 3 5 4 5 13 13 16 11 13 6 1 7 8 17 17 16 27 25 24 24 21 19 18 17 16 16 16 15 14 14 15 14 12 12 11 9 9 8 8 5 6
6 1 4 3 4 5 14 13 12 22 6 3 12 15 17 20 30 19 17 21 22 24 21 18 17 17 17 16 16 16 15 14 14 13 12 11 10 10 9 8 7 6 7 7
1 3 2 3 3 4 0 8 16 12 7 13 23 20 22 23 20 9 16 23 20 22 19 19 18 17 16 13 15 16 14 14 13 12 12 10 9 10 10 8 8 8 6 5
6 4 3 5 5 4 4 4 10 6 8 15 15 9 13 18 15 16 17 20 20 20 21 19 18 16 13 13 15 16 14 14 12 12 12 12 11 11 8 8 7 6 5 7
5 6 4 5 5 7 9 7 2 11 18 20 18 19 22 23 21 20 19 20 20 20 19 17 17 15 11 13 14 15 14 12 13 13 13 12 11 9 7 7 6 5 6 6
3 5 5 5 5 8 8 9 16 16 23 23 19 16 26 22 20 19 19 19 18 17 16 14 15 15 12 11 11 15 13 13 13 12 11 10 10 9 8 7 5 4 5 6
5 5 4 4 12 13 16 19 19 20 21 19 20 17 20 23 20 20 17 16 15 14 14 13 15 15 12 10 11 12 12 11 12 12 11 9 9 8 6 4 4 5 6 7
4 10 9 4 7 14 15 16 21 22 22 22 20 19 18 21 19 20 17 16 14 14 12 12 13 12 11 10 10 11 9 10 10 10 8 7 5 5 4 4 3 3 3 3
7 5 4 3 7 13 10 12 19 24 20 19 24 19 15 15 19 18 16 14 13 13 12 12 12 12 10 10 9 9 8 7 9 8 5 4 4 3 3 3 3 4 4 5
Wind_Direction
136 186 232 237 242 244 254 267 257 253 220 211 229 239 246 226 220 209 217 233 241 221 199 132 148 151 146 151 156 170 154 162 164 167 159 182 184 173 161 174 196 183 185 170
160 214 221 239 249 232 238 254 267 275 263 222 234 237 228 218 227 219 202 222 224 227 202 134 144 150 159 162 166 163 178 168 183 195 171 151 125 107 48 91 148 159 148 151
226 231 217 235 256 258 233 238 243 254 272 291 236 249 222 235 232 213 220 211 207 206 217 137 153 161 164 164 169 175 186 193 200 184 108 79 57 46 91 299 224 177 136 152
243 241 235 228 238 238 243 245 259 263 246 236 177 249 211 218 209 211 216 209 213 219 193 156 179 152 162 172 169 167 168 176 219 214 155 182 205 193 182 191 167 205 129 150
241 201 201 220 229 238 261 226 231 256 263 262 267 276 246 193 213 217 217 208 201 204 177 165 189 148 164 159 168 177 179 186 208 201 201 204 197 186 168 172 157 118 84 108
252 271 188 182 179 248 237 300 235 244 228 234 235 198 270 192 201 217 213 206 190 186 175 183 171 142 148 158 156 160 177 177 179 186 182 208 200 171 156 114 98 86 100 81
267 226 212 190 152 185 215 102 185 228 197 227 188 211 244 264 223 201 203 199 193 171 168 159 152 150 144 152 156 142 148 141 152 122 131 107 117 113 76 129 114 165 90 75
331 281 217 193 193 163 215 186 171 202 152 220 163 204 237 232 247 224 194 189 187 172 168 159 159 158 149 144 143 138 137 114 86 110 82 68 77 123 164 98 102 99 85 72
308 288 247 252 214 183 181 188 200 318 187 91 202 228 290 253 255 219 190 165 185 172 152 149 156 147 140 137 140 132 117 97 90 87 81 68 69 79 93 89 79 77 72 68
281 286 215 286 181 192 183 152 152 260 196 161 184 214 227 204 211 271 191 183 180 152 132 131 131 132 126 116 112 103 100 101 96 91 91 86 77 71 71 75 76 74 72 75
300 267 316 318 227 170 152 133 166 200 257 155 165 243 326 319 247 220 260 188 134 114 117 122 121 119 118 109 105 104 100 97 91 90 89 90 81 71 74 74 72 75 77 67
196 238 265 241 275 18 141 159 190 137 214 284 173 254 312 251 151 212 103 118 118 117 119 121 113 113 108 103 104 97 94 96 94 96 91 83 87 82 78 72 69 61 62 51
159 218 300 229 58 133 168 181 165 136 113 175 122 283 339 99 101 147 115 114 115 114 112 108 111 108 107 98 96 97 97 97 96 93 92 90 91 88 76 65 57 55 61 64
225 198 209 228 50 313 278 241 160 151 118 151 60 26 356 97 112 128 111 115 114 111 109 108 104 103 102 101 99 105 96 96 96 96 93 88 80 76 77 72 64 60 57 61
217 244 231 251 254 257 253 260 175 180 144 131 156 53 322 334 143 132 116 108 104 104 108 109 106 103 101 97 100 95 96 97 101 93 83 84 80 79 73 66 63 62 62 60
199 267 256 267 239 225 228 227 188 177 136 110 143 219 333 236 205 117 118 113 107 105 103 102 102 99 95 99 102 100 94 92 93 91 88 84 78 73 73 73 69 66 57 53
198 245 286 306 146 172 231 226 189 183 154 140 155 173 134 217 139 125 114 107 105 104 103 97 97 97 99 102 97 96 94 94 89 89 87 81 80 78 70 65 63 58 55 47
188 202 239 283 140 144 251 137 128 109 106 100 76 245 203 186 109 105 100 108 106 104 101 98 97 94 92 93 91 92 91 89 88 84 83 84 82 74 64 59 55 46 33 41
169 193 297 333 55 122 93 122 122 123 49 104 99 93 94 125 94 73 93 93 100 101 98 96 94 94 93 91 92 91 89 89 86 86 87 84 82 77 67 59 55 48 45 35
42 247 288 320 91 87 274 129 132 129 108 144 131 143 143 117 93 98 99 98 96 97 98 97 92 88 86 87 92 89 89 88 87 87 83 74 67 69 60 45 45 56 48 28
341 359 356 334 59 77 352 227 332 79 147 120 126 109 96 96 104 115 102 91 96 95 95 93 88 87 89 91 92 92 90 87 88 81 74 69 68 64 56 52 40 39 32 42
351 333 353 344 43 71 -0 289 355 128 101 104 98 114 104 99 102 102 96 93 89 92 88 87 91 86 86 91 95 92 90 91 87 82 79 73 65 63 58 58 38 32 36 42
29 13 307 13 19 352 19 81 83 101 110 114 107 115 113 106 100 96 93 90 89 88 91 90 91 90 81 81 89 96 97 93 89 85 79 73 73 67 54 52 32 40 36 46
333 352 351 331 30 44 68 78 84 93 98 102 111 110 107 109 105 99 96 94 94 92 92 95 94 91 88 78 79 83 94 101 101 93 84 77 76 64 50 51 44 56 50 60
329 314 329 42 60 63 52 83 100 93 94 95 87 90 97 106 102 105 103 99 98 99 97 95 97 100 97 84 74 79 81 90 94 92 95 87 82 79 72 60 62 52 69 71
343 327 359 1 355 87 82 92 100 98 98 99 101 90 86 88 102 102 99 101 102 102 105 102 99 97 90 87 75 71 73 87 104 106 100 104 104 100 83 71 63 44 48 33